Weather History for Maple Lake, MN

Change the Weather History Date:

Thursday, January 24, 2013

  Actual Average (KSTC) Record (KSTC)
Temperature  
Mean Temperature 2 °F 12 °F  
Max Temperature 12 °F 22 °F 56 °F (1981)
Min Temperature -8 °F 2 °F -42 °F (1904)
Degree Days  
Heating Degree Days 63 53  
Month to date heating degree days 1287  
Since 1 July heating degree days 4734  
Cooling Degree Days 0 0  
Month to date cooling degree days 0  
Year to date cooling degree days 0  
Moisture  
Dew Point -9 °F    
Average Humidity 64    
Maximum Humidity 69    
Minimum Humidity 58    
Precipitation  
Precipitation 0.00 in 0.02 in 0.31 in (1950)
Month to date precipitation 0.53  
Year to date precipitation 0.53  
Snow  
Snow 0.00 in 0.20 in 3.60 in (1986)
Month to date snowfall 6.9  
Since 1 July snowfall 25.5  
Snow Depth -    
Sea Level Pressure  
Sea Level Pressure 30.45 in    
Wind  
Wind Speed 7 mph (ESE)    
Max Wind Speed 10 mph    
Max Gust Speed 20 mph    
Visibility 10 miles    
Events      
T = Trace of Precipitation, MM = Missing Value Source: NWS Daily Summary

Daily Weather History Graph

Daily Weather History Graph

Search for Another Location

Airport:

Trip Planner

Search our weather history database for the weather conditions in past years. The results will help you decide how hot, cold, wet, or windy it might be!

Date:

Astronomy

Jan. 24, 2013 Rise Set
Actual Time 7:44 AM CST 5:12 PM CST
Civil Twilight 7:12 AM CST 5:44 PM CST
Nautical Twilight 6:36 AM CST 6:20 PM CST
Astronomical Twilight 6:01 AM CST 6:55 PM CST
Moon 3:13 PM CST (1/24) 5:44 AM CST (1/24)
Length of Visible Light 10h 32m
Length of Day
9h 27m
Waxing Gibbous, 94% of the Moon is Illuminated
Jan 24
Waxing Gibbous
Jan 26
Full
Feb 3
Last Quarter
Feb 10
New
Feb 17
First Quarter

Hourly Weather History & Observations

Time (CST) Temp. Windchill Dew Point Humidity Pressure Visibility Wind Dir Wind Speed Gust Speed Precip Events Conditions
12:15 AM -7.2 °F -21.7 °F -17.0 °F 63% 30.61 in 10.0 mi North 6.9 mph - N/A   Clear
12:35 AM -7.6 °F -22.1 °F -17.1 °F 63% 30.61 in 10.0 mi NNE 6.9 mph - N/A   Clear
12:55 AM -7.8 °F -19.0 °F -16.6 °F 65% 30.60 in 10.0 mi NNE 4.6 mph - N/A   Clear
1:16 AM -7.6 °F -23.4 °F -17.1 °F 63% 30.60 in 10.0 mi NE 8.1 mph - N/A   Clear
1:35 AM -7.8 °F -22.3 °F -17.3 °F 63% 30.60 in 10.0 mi NE 6.9 mph - N/A   Clear
1:55 AM -8.0 °F -23.9 °F -17.9 °F 62% 30.61 in 10.0 mi ENE 8.1 mph - N/A   Clear
2:15 AM -8.0 °F -21.0 °F -17.9 °F 62% 30.62 in 10.0 mi NE 5.8 mph - N/A   Clear
2:35 AM -8.0 °F -21.0 °F -17.5 °F 63% 30.63 in 10.0 mi NE 5.8 mph - N/A   Clear
2:55 AM -8.0 °F -22.5 °F -17.3 °F 64% 30.63 in 10.0 mi NE 6.9 mph - N/A   Clear
3:15 AM -8.0 °F -21.0 °F -17.0 °F 65% 30.64 in 10.0 mi NE 5.8 mph - N/A   Clear
3:35 AM -8.0 °F -21.0 °F -17.3 °F 64% 30.64 in 10.0 mi ENE 5.8 mph - N/A   Clear
3:55 AM -8.0 °F -19.2 °F -17.5 °F 63% 30.65 in 10.0 mi ENE 4.6 mph - N/A   Clear
4:15 AM -8.0 °F -21.0 °F -16.8 °F 65% 30.62 in 10.0 mi NE 5.8 mph - N/A   Clear
4:35 AM -8.1 °F -21.2 °F -17.1 °F 65% 30.62 in 10.0 mi ENE 5.8 mph - N/A   Clear
4:56 AM -8.1 °F -22.7 °F -16.8 °F 66% 30.61 in 10.0 mi NE 6.9 mph - N/A   Clear
5:15 AM -8.0 °F -23.9 °F -16.6 °F 66% 30.61 in 10.0 mi ENE 8.1 mph - N/A   Clear
5:35 AM -7.8 °F -22.3 °F -16.4 °F 66% 30.61 in 10.0 mi ENE 6.9 mph - N/A   Clear
5:55 AM -7.8 °F -19.0 °F -16.2 °F 67% 30.62 in 10.0 mi East 4.6 mph - N/A   Scattered Clouds
6:16 AM -7.6 °F -16.5 °F -16.6 °F 65% 30.64 in 10.0 mi ESE 3.5 mph - N/A   Clear
6:35 AM -7.6 °F - -16.6 °F 65% 30.65 in 10.0 mi Calm Calm - N/A   Clear
6:55 AM -7.2 °F - -16.2 °F 65% 30.64 in 10.0 mi Calm Calm - N/A   Scattered Clouds
7:15 AM -6.9 °F -17.9 °F -15.3 °F 67% 30.64 in 10.0 mi East 4.6 mph - N/A   Mostly Cloudy
7:35 AM -6.9 °F -19.7 °F -15.3 °F 67% 30.62 in 10.0 mi East 5.8 mph - N/A   Mostly Cloudy
7:55 AM -6.9 °F -19.7 °F -15.2 °F 67% 30.62 in 10.0 mi East 5.8 mph - N/A   Scattered Clouds
8:15 AM -6.7 °F -17.7 °F -14.8 °F 68% 30.61 in 10.0 mi ESE 4.6 mph - N/A   Clear
8:35 AM -6.3 °F -21.9 °F -14.8 °F 67% 30.60 in 10.0 mi East 8.1 mph - N/A   Clear
8:55 AM -5.8 °F -18.4 °F -13.7 °F 69% 30.58 in 10.0 mi East 5.8 mph - N/A   Mostly Cloudy
9:15 AM -5.4 °F -19.5 °F -13.7 °F 67% 30.58 in 10.0 mi East 6.9 mph - N/A   Mostly Cloudy
9:35 AM -4.9 °F -15.6 °F -13.2 °F 68% 30.59 in 10.0 mi SE 4.6 mph - N/A   Scattered Clouds
9:55 AM -4.2 °F -14.8 °F -12.8 °F 66% 30.59 in 10.0 mi SE 4.6 mph - N/A   Clear
10:15 AM -3.3 °F -15.4 °F -11.4 °F 68% 30.59 in 10.0 mi SE 5.8 mph - N/A   Clear
10:36 AM -3.1 °F -13.5 °F -11.7 °F 67% 30.58 in 10.0 mi ESE 4.6 mph - N/A   Clear
10:55 AM -2.2 °F -15.6 °F -11.2 °F 66% 30.57 in 10.0 mi SE 6.9 mph - N/A   Clear
11:15 AM -1.5 °F -13.3 °F -10.7 °F 65% 30.56 in 10.0 mi ESE 5.8 mph - N/A   Clear
11:35 AM -0.8 °F -10.8 °F -9.9 °F 65% 30.55 in 10.0 mi SE 4.6 mph - N/A   Clear
11:55 AM 0.1 °F -12.8 °F -9.8 °F 63% 30.55 in 10.0 mi SE 6.9 mph - N/A   Clear
12:15 PM 1.2 °F -10.1 °F -8.7 °F 63% 30.53 in 10.0 mi SE 5.8 mph - N/A   Clear
12:35 PM 1.6 °F -11.0 °F -8.0 °F 64% 30.50 in 10.0 mi SE 6.9 mph - N/A   Scattered Clouds
12:55 PM 2.3 °F -11.4 °F -8.0 °F 62% 30.49 in 10.0 mi SSE 8.1 mph - N/A   Mostly Cloudy
1:15 PM 2.8 °F -10.7 °F -7.1 °F 63% 30.49 in 10.0 mi SE 8.1 mph - N/A   Overcast
1:35 PM 3.2 °F -10.3 °F -7.1 °F 62% 30.48 in 10.0 mi SE 8.1 mph - N/A   Overcast
1:55 PM 3.9 °F -10.4 °F -6.2 °F 63% 30.46 in 10.0 mi SE 9.2 mph - N/A   Overcast
2:15 PM 4.1 °F -8.0 °F -6.0 °F 63% 30.44 in 10.0 mi ESE 6.9 mph - N/A   Overcast
2:35 PM 4.5 °F -8.7 °F -5.6 °F 63% 30.41 in 10.0 mi SE 8.1 mph - N/A   Overcast
2:55 PM 4.8 °F -7.1 °F -4.7 °F 65% 30.41 in 10.0 mi SE 6.9 mph - N/A   Overcast
3:16 PM 4.8 °F -9.3 °F -5.1 °F 64% 30.39 in 10.0 mi SE 9.2 mph - N/A   Overcast
3:35 PM 5.2 °F -3.8 °F -4.4 °F 65% 30.39 in 10.0 mi SE 4.6 mph - N/A   Overcast
3:55 PM 5.5 °F -8.4 °F -4.2 °F 64% 30.37 in 10.0 mi SE 9.2 mph - N/A   Overcast
4:15 PM 5.9 °F -5.8 °F -4.0 °F 64% 30.36 in 10.0 mi SE 6.9 mph - N/A   Mostly Cloudy
4:35 PM 6.4 °F -7.3 °F -4.0 °F 62% 30.34 in 10.0 mi ESE 9.2 mph - N/A   Mostly Cloudy
4:55 PM 6.8 °F -6.9 °F -3.5 °F 63% 30.32 in 10.0 mi ESE 9.2 mph - N/A   Mostly Cloudy
5:15 PM 7.2 °F -4.3 °F -3.3 °F 62% 30.32 in 10.0 mi ESE 6.9 mph - N/A   Mostly Cloudy
5:35 PM 7.5 °F -2.6 °F -2.9 °F 62% 30.31 in 10.0 mi ESE 5.8 mph - N/A   Scattered Clouds
5:55 PM 7.7 °F -2.4 °F -2.2 °F 64% 30.29 in 10.0 mi SE 5.8 mph - N/A   Clear
6:15 PM 8.1 °F -5.3 °F -1.3 °F 66% 30.27 in 10.0 mi ESE 9.2 mph - N/A   Clear
6:35 PM 8.6 °F -3.7 °F -0.9 °F 65% 30.27 in 10.0 mi SE 8.1 mph - N/A   Mostly Cloudy
6:55 PM 9.0 °F 0.6 °F -0.8 °F 65% 30.24 in 10.0 mi SE 4.6 mph - N/A   Overcast
7:15 PM 9.5 °F -2.6 °F -0.2 °F 65% 30.22 in 10.0 mi SE 8.1 mph - N/A   Overcast
7:35 PM 10.2 °F -2.7 °F -1.5 °F 59% 30.21 in 10.0 mi SE 9.2 mph 16.1 mph N/A   Overcast
7:55 PM 10.4 °F -2.4 °F -1.3 °F 59% 30.20 in 10.0 mi SE 9.2 mph - N/A   Overcast
8:15 PM 10.4 °F -2.4 °F -1.8 °F 58% 30.21 in 10.0 mi SE 9.2 mph - N/A   Overcast
8:35 PM 10.4 °F -2.4 °F -0.8 °F 61% 30.18 in 10.0 mi SE 9.2 mph - N/A   Overcast
8:55 PM 10.4 °F -3.3 °F -0.4 °F 62% 30.17 in 10.0 mi SSE 10.4 mph 19.6 mph N/A   Overcast
9:15 PM 10.8 °F -2.0 °F 0.1 °F 62% 30.17 in 10.0 mi SSE 9.2 mph 18.4 mph N/A   Overcast
9:35 PM 10.9 °F 0.2 °F 0.1 °F 62% 30.19 in 10.0 mi SSE 6.9 mph - N/A   Overcast
9:55 PM 11.1 °F -0.6 °F 0.5 °F 62% 30.20 in 10.0 mi SSE 8.1 mph - N/A   Overcast
10:15 PM 11.3 °F 0.7 °F 1.6 °F 65% 30.19 in 10.0 mi SSE 6.9 mph - N/A   Overcast
10:35 PM 11.3 °F -0.4 °F 2.1 °F 67% 30.17 in 10.0 mi SSE 8.1 mph - N/A   Overcast
10:55 PM 11.3 °F 0.7 °F 2.5 °F 68% 30.16 in 10.0 mi SSE 6.9 mph - N/A   Overcast
11:15 PM 11.8 °F 0.3 °F 2.5 °F 66% 30.15 in 10.0 mi SSE 8.1 mph - N/A   Overcast
11:35 PM 12.0 °F 1.5 °F 3.0 °F 67% 30.13 in 10.0 mi SSE 6.9 mph - N/A   Overcast
11:56 PM 12.2 °F 2.9 °F 3.0 °F 67% 30.12 in 10.0 mi South 5.8 mph - N/A   Overcast